Date,TemperatureHighF,TemperatureAvgF,TemperatureLowF,DewpointHighF,DewpointAvgF,DewpointLowF,HumidityHigh,HumidityAvg,HumidityLow,PressureMaxIn,PressureMinIn,WindSpeedMaxMPH,WindSpeedAvgMPH,GustSpeedMaxMPH,PrecipitationSumIn
2014-1-1,-5,-15,-28,-11,-21,-34,73,73,73,30.36,30.27,8,1,8,0.00
2014-1-2,1,-21,-36,-6,-27,-42,73,73,73,30.33,30.18,6,1,6,0.00
2014-1-3,22,4,-31,15,-4,-37,77,68,48,30.18,29.27,25,9,25,0.00
2014-1-4,22,10,-10,17,-2,-22,82,60,52,30.06,29.24,15,6,15,0.00
2014-1-5,-8,-16,-28,-20,-28,-39,54,54,54,30.18,30.06,13,5,13,0.00
2014-1-6,-14,-21,-26,-26,-32,-37,54,54,54,30.09,29.89,16,7,16,0.00
2014-1-7,-3,-14,-23,-15,-26,-35,54,54,54,30.06,29.89,14,5,14,0.00
2014-1-8,2,-13,-25,-10,-25,-36,54,54,54,30.27,30.06,10,3,10,0.00
2014-1-9,15,4,-17,3,-10,-29,58,53,44,30.24,29.74,21,7,232,0.00
2014-1-10,27,23,15,24,17,3,89,77,58,29.74,29.36,18,6,18,0.00
2014-1-11,30,27,24,24,19,13,90,72,53,29.47,29.33,12,5,14,0.00
2014-1-12,38,30,22,21,18,15,83,60,43,29.47,29.21,16,6,16,0.00
2014-1-13,33,26,17,20,9,-1,64,48,41,29.50,29.33,15,5,15,0.00
2014-1-14,20,13,1,8,-1,-11,60,54,47,29.92,29.47,14,5,15,0.00
2014-1-15,18,3,-16,9,-9,-27,69,55,54,29.95,29.18,22,7,22,0.00
2014-1-16,29,16,8,26,6,-5,89,65,52,29.71,29.12,25,8,25,0.00
2014-1-17,13,3,-12,0,-10,-24,55,55,55,29.86,29.68,15,3,15,0.00
2014-1-18,22,12,-1,8,-4,-13,59,48,33,29.74,29.44,17,4,17,0.00
2014-1-19,30,24,17,16,12,3,64,58,51,29.59,29.33,15,5,15,0.00
2014-1-20,17,3,-11,3,-9,-22,59,59,51,30.27,29.59,15,5,15,0.00
2014-1-21,3,-10,-29,-8,-20,-38,59,59,59,30.27,29.83,13,4,13,0.00
2014-1-22,-1,-2,-6,-12,-13,-17,59,59,59,30.30,29.77,22,8,22,0.00
2014-1-23,-3,-10,-19,-14,-21,-29,59,59,59,30.48,29.92,23,7,23,0.00
2014-1-24,27,16,-3,23,6,-14,86,65,44,29.92,29.27,23,9,23,0.00
2014-1-25,12,1,-4,-4,-14,-18,48,48,48,29.68,29.39,20,6,20,0.00
2014-1-26,6,1,-9,-10,-14,-23,48,48,48,29.80,29.18,26,6,26,0.00
2014-1-27,-4,-13,-20,-19,-27,-34,48,48,48,30.12,29.80,21,8,21,0.00
2014-1-28,0,-10,-20,-16,-24,-33,48,48,48,30.12,29.80,19,8,19,0.00
2014-1-29,24,8,-10,3,-11,-24,48,42,32,29.80,29.39,22,8,25,0.00
2014-1-30,22,9,-7,3,-10,-25,44,41,41,29.83,29.41,15,6,15,0.00
2014-1-31,7,-5,-21,-12,-22,-37,41,41,41,29.92,29.83,14,5,15,0.00
2014-2-1,14,6,-4,-3,-12,-21,45,43,41,30.01,29.77,10,5,11,0.00
2014-2-2,12,0,-18,-6,-16,-33,45,45,45,30.09,30.01,17,5,17,0.00
2014-2-3,17,3,-13,-4,-15,-32,45,41,36,30.18,30.01,12,3,12,0.00
2014-2-4,8,-3,-20,-13,-24,-38,36,36,36,30.33,30.18,10,3,10,0.00
2014-2-5,4,-1,-5,-17,-22,-25,36,36,36,30.33,30.24,11,5,11,0.00
2014-2-6,5,-4,-11,-16,-24,-30,36,36,36,30.24,29.95,17,7,17,0.00
2014-2-7,13,3,-6,-9,-18,-26,36,36,36,29.98,29.86,18,8,18,0.00
2014-2-8,15,-1,-21,-5,-21,-40,40,38,36,30.01,29.92,103,1,103,0.00
2014-2-9,5,-2,-7,-14,-20,-25,40,40,40,30.18,30.01,13,5,13,0.00
2014-2-10,5,-9,-22,-14,-27,-38,40,40,40,30.27,30.18,10,3,10,0.00
2014-2-11,15,-2,-28,-6,-23,-44,40,37,31,30.27,29.86,22,6,22,0.00
2014-2-12,19,13,10,1,-10,-14,54,35,32,29.95,29.68,11,4,13,0.00
2014-2-13,21,16,6,13,4,-10,74,59,35,29.68,29.30,19,5,19,0.00
2014-2-14,14,0,-15,-2,-17,-34,48,44,35,29.86,29.59,13,4,13,0.00
2014-2-15,19,8,-16,7,-10,-35,66,46,34,29.92,29.68,13,4,13,0.00
2014-2-16,17,9,3,5,-4,-10,66,56,44,30.12,29.92,10,3,10,0.00
2014-2-17,23,19,8,17,8,-9,78,62,45,29.95,29.56,13,4,13,0.00
2014-2-18,40,29,20,17,12,6,75,52,35,29.59,29.39,14,5,14,0.00
2014-2-19,44,34,22,17,11,8,58,39,28,29.62,29.53,16,6,16,0.00
2014-2-20,36,28,22,27,18,9,93,66,43,29.62,29.03,17,5,17,0.00
2014-2-21,29,13,6,28,8,0,95,78,76,29.47,29.00,23,12,23,0.00
2014-2-22,15,8,2,8,-4,-16,76,60,37,29.86,29.47,18,10,18,0.00
2014-2-23,18,8,0,-5,-13,-20,38,36,34,30.03,29.86,19,9,19,0.00
2014-2-24,14,5,-3,-8,-16,-24,35,35,35,30.12,30.01,13,6,13,0.00
2014-2-25,6,-3,-12,-16,-24,-32,35,35,35,30.12,30.03,15,7,15,0.00
2014-2-26,12,-2,-13,-10,-22,-33,35,35,35,30.09,29.39,25,10,25,0.00
2014-2-27,-1,-13,-25,-22,-32,-44,35,35,35,30.03,29.74,12,4,12,0.00
2014-2-28,12,-1,-19,-11,-22,-38,35,35,35,30.01,29.74,15,5,15,0.00
2014-3-1,-1,-8,-17,-22,-28,-36,35,35,35,30.36,30.01,16,5,16,0.00
2014-3-2,5,-11,-24,-17,-31,-42,35,35,35,30.36,30.27,14,5,14,0.00
2014-3-3,11,-6,-32,-12,-26,-50,35,35,35,30.36,30.12,9,3,9,0.00
2014-3-4,17,3,-17,5,-14,-34,62,46,35,30.24,30.06,6,0,6,0.00
2014-3-5,19,0,-19,5,-12,-28,65,54,44,30.39,30.18,12,2,12,0.00
2014-3-6,31,21,9,13,3,-6,57,45,37,30.18,29.65,22,9,22,0.00
2014-3-7,31,27,20,23,14,3,81,61,43,30.09,29.62,17,5,17,0.00
2014-3-8,28,19,13,4,-1,-7,50,40,31,30.18,29.98,12,3,12,0.00
2014-3-9,44,32,18,21,11,0,54,42,32,29.98,29.47,25,8,25,0.00
2014-3-10,55,44,32,28,20,14,74,42,24,29.56,29.41,16,6,16,0.00
2014-3-11,42,35,27,18,11,2,45,37,30,29.92,29.56,18,6,18,0.00
2014-3-12,27,14,6,9,-3,-14,62,47,34,30.06,29.89,12,4,12,0.00
2014-3-13,47,32,12,25,10,-10,52,40,31,29.89,29.33,17,8,17,0.00
2014-3-14,42,34,23,27,17,6,65,51,39,29.80,29.33,20,7,20,0.00
2014-3-15,24,18,9,8,-2,-12,51,40,33,30.33,29.80,11,3,11,0.00
2014-3-16,24,12,-8,-4,-12,-27,42,32,24,30.39,29.89,11,3,11,0.00
2014-3-17,27,23,19,9,3,-8,52,43,30,29.89,29.53,18,7,18,0.00
2014-3-18,27,25,23,22,16,9,84,69,52,29.77,29.62,0,0,0,0.00
2014-3-19,33,28,24,22,15,8,86,60,35,29.83,29.71,15,3,15,0.00
2014-3-20,42,31,13,14,8,-3,57,39,28,29.89,29.80,14,2,14,0.00
2014-3-21,34,31,22,30,20,7,92,67,43,29.98,29.59,17,2,17,0.00
2014-3-22,22,9,0,7,-8,-19,52,45,36,30.33,29.98,17,6,17,0.00
2014-3-23,20,4,-14,-4,-17,-33,37,36,33,30.33,30.18,14,3,14,0.00
2014-3-24,27,9,-16,2,-13,-36,43,34,29,30.18,29.92,18,5,18,0.00
2014-3-25,20,10,-4,-4,-12,-26,38,36,33,30.09,29.95,17,6,17,0.00
2014-3-26,33,15,-12,6,-9,-33,43,33,30,30.01,29.56,15,4,15,0.00
2014-3-27,32,29,27,24,18,6,88,66,34,29.65,29.47,15,3,15,0.00
2014-3-28,33,25,8,24,7,-3,88,47,30,30.12,29.65,10,1,10,0.00
2014-3-29,43,27,7,11,3,-8,61,37,23,30.15,29.95,11,2,11,0.00
2014-3-30,53,42,33,21,17,11,52,37,28,29.95,29.74,22,6,22,0.00
2014-3-31,35,32,31,28,25,0,87,74,53,29.80,29.33,13,4,13,0.00
2014-4-1,33,24,15,30,13,-1,91,65,42,29.98,29.30,0,0,0,0.00
2014-4-2,39,24,4,9,2,-10,61,41,29,30.12,29.98,9,1,9,0.00
2014-4-3,32,28,24,20,12,4,84,52,35,30.06,29.77,17,6,17,0.00
2014-4-4,38,29,18,27,19,4,93,70,36,29.86,29.62,17,6,17,0.00
2014-4-5,47,31,8,20,10,-4,73,44,28,29.95,29.83,16,5,16,0.00
2014-4-6,50,41,26,20,18,13,74,41,29,29.83,29.71,13,3,13,0.00
2014-4-7,51,34,22,41,24,15,86,70,36,29.74,29.65,6,1,6,0.00
2014-4-8,47,37,27,23,16,6,67,43,27,29.86,29.68,13,3,13,0.00
2014-4-9,60,45,23,25,18,7,61,35,24,29.83,29.30,26,7,26,0.00
2014-4-10,52,45,32,30,17,7,48,33,21,29.77,29.33,22,7,22,0.00
2014-4-11,56,42,27,23,18,11,63,38,23,29.86,29.77,13,2,13,0.00
2014-4-12,42,35,32,29,24,16,86,68,38,29.89,29.71,13,4,13,0.00
2014-4-13,40,34,31,34,23,10,94,68,40,29.86,29.71,16,5,16,0.00
2014-4-14,31,26,20,10,3,-2,46,36,28,29.98,29.83,20,7,232,0.00
2014-4-15,32,22,14,2,-2,-6,46,35,23,30.01,29.95,9,3,9,0.00
2014-4-16,28,26,18,24,13,-3,86,60,31,30.06,30.01,18,6,18,0.00
2014-4-17,37,30,20,27,18,4,91,62,38,30.21,29.98,16,5,16,0.00
2014-4-18,43,30,12,24,9,-1,71,42,25,30.30,30.18,12,2,12,0.00
2014-4-19,46,38,29,27,18,10,62,45,32,30.21,29.89,17,4,17,0.00
2014-4-20,66,45,25,46,24,12,85,49,20,29.95,29.86,6,1,6,0.00
2014-4-21,63,49,36,31,21,15,49,33,24,29.95,29.74,20,7,22,0.00
2014-4-22,52,40,28,19,15,7,55,38,23,30.01,29.95,12,4,12,0.00
2014-4-23,53,39,26,28,18,12,68,46,26,30.03,29.89,12,2,12,0.00
2014-4-24,39,34,32,31,28,26,83,78,65,29.92,29.56,13,3,13,0.00
2014-4-25,44,37,32,35,26,18,95,69,42,29.86,29.56,14,3,14,0.00
2014-4-26,44,35,30,27,21,12,73,55,40,30.03,29.86,15,5,15,0.00
2014-4-27,37,34,32,29,20,10,77,57,37,30.01,29.80,13,5,13,0.00
2014-4-28,36,34,32,30,27,24,83,76,65,29.83,29.74,19,7,19,0.00
2014-4-29,36,34,32,32,25,18,89,72,52,29.77,29.68,68,10,68,0.00
2014-4-30,39,36,34,37,34,0,94,93,89,29.68,29.65,14,4,14,0.00
2014-5-1,44,39,36,39,33,26,96,80,51,29.68,29.59,14,4,14,0.00
2014-5-2,52,45,37,36,29,25,78,56,37,29.68,29.53,12,3,12,0.00
2014-5-3,53,45,39,30,21,13,61,40,26,29.83,29.53,17,7,17,0.00
2014-5-4,54,43,29,23,17,13,64,37,23,30.01,29.83,10,4,10,0.00
2014-5-5,48,40,34,34,25,17,77,57,37,29.98,29.89,10,3,10,0.00
2014-5-6,48,39,33,40,26,20,86,61,41,29.95,29.83,13,3,13,0.00
2014-5-7,51,41,34,40,27,20,87,59,37,29.86,29.62,16,6,16,0.00
2014-5-8,45,39,35,43,36,31,92,88,80,29.74,29.53,15,4,15,0.00
2014-5-9,49,42,37,47,36,28,95,80,54,29.65,29.33,22,6,22,0.00
2014-5-10,70,54,35,35,23,15,85,36,14,29.77,29.65,13,3,13,0.00
2014-5-11,65,49,39,43,29,23,71,48,31,29.83,29.77,12,3,12,0.00
2014-5-12,39,36,34,34,31,24,92,81,54,29.83,29.59,17,6,17,0.00
2014-5-13,54,44,34,40,29,20,94,58,34,30.01,29.62,17,7,17,0.00
2014-5-14,52,44,34,25,20,14,57,39,24,30.12,30.01,16,5,16,0.00
2014-5-15,47,38,26,28,19,13,74,48,32,30.12,29.98,13,2,13,0.00
2014-5-16,53,42,29,27,16,11,71,38,21,29.98,29.89,14,2,14,0.00
2014-5-17,66,49,26,28,18,12,77,34,15,29.89,29.80,15,3,15,0.00
2014-5-18,72,59,41,27,22,16,46,26,16,29.89,29.83,20,5,20,0.00
2014-5-19,62,54,41,45,33,19,80,49,24,29.92,29.71,15,5,15,0.00
2014-5-20,75,55,39,55,41,30,91,66,22,29.74,29.65,15,3,15,0.00
2014-5-21,61,52,37,49,34,29,93,56,34,29.98,29.71,15,4,231,0.00
2014-5-22,66,55,46,37,31,24,62,41,25,30.09,29.98,13,3,13,0.00
2014-5-23,72,56,34,42,30,26,80,43,22,30.15,30.01,8,2,8,0.00
2014-5-24,83,66,40,49,32,28,78,35,16,30.03,29.92,13,4,13,0.00
2014-5-25,82,72,59,41,33,29,37,25,17,29.95,29.77,19,6,19,0.00
2014-5-26,84,72,61,54,47,38,71,44,23,29.80,29.74,11,3,11,0.00
2014-5-27,64,54,41,53,34,25,73,50,30,29.95,29.80,13,3,13,0.00
2014-5-28,66,50,32,42,30,22,80,49,28,30.03,29.95,11,2,11,0.00
2014-5-29,80,58,34,52,34,26,85,47,20,30.06,29.95,8,2,8,0.00
2014-5-30,73,55,39,45,34,27,83,51,26,30.06,29.95,8,1,8,0.00
2014-5-31,70,57,44,66,50,33,89,76,60,30.01,29.83,8,1,8,0.00
2014-6-1,69,58,47,61,52,43,91,81,55,29.83,29.62,10,1,10,0.00
2014-6-2,76,57,45,60,46,40,91,71,32,29.65,29.41,23,4,23,0.00
2014-6-3,74,62,50,46,38,32,70,43,23,29.77,29.56,15,6,232,0.00
2014-6-4,73,59,44,57,39,32,84,53,22,29.86,29.74,10,2,10,0.00
2014-6-5,64,52,39,50,39,31,86,64,36,29.86,29.74,8,1,8,0.00
2014-6-6,81,66,47,58,43,31,91,51,21,29.89,29.77,11,3,11,0.00
2014-6-7,61,54,46,52,42,34,85,67,42,29.98,29.86,10,2,10,0.00
2014-6-8,67,55,38,51,33,26,90,50,23,30.03,29.95,8,2,8,0.00
2014-6-9,72,54,42,46,36,28,82,54,21,29.95,29.86,10,1,10,0.00
2014-6-10,71,54,37,53,38,32,86,59,33,29.92,29.80,9,2,9,0.00
2014-6-11,69,53,39,50,37,32,86,58,33,29.80,29.62,8,2,231,0.00
2014-6-12,61,54,47,56,39,27,89,58,36,29.83,29.47,26,9,26,0.00
2014-6-13,72,57,37,46,33,28,86,45,22,29.89,29.80,13,3,13,0.00
2014-6-14,60,47,41,48,38,30,93,73,38,29.92,29.68,8,2,8,0.00
2014-6-15,71,58,46,56,44,38,93,65,30,29.71,29.39,18,6,18,0.00
2014-6-16,78,69,59,52,44,38,60,41,25,29.77,29.62,15,5,15,0.00
2014-6-17,81,67,54,56,45,40,83,48,24,29.83,29.62,8,2,8,0.00
2014-6-18,64,54,46,47,40,34,80,60,42,29.98,29.80,10,4,10,0.00
2014-6-19,60,48,44,56,41,34,88,76,53,30.01,29.83,14,2,14,0.00
2014-6-20,56,47,42,52,42,38,91,82,69,29.89,29.80,8,2,8,0.00
2014-6-21,69,51,40,62,45,37,93,80,44,29.86,29.80,6,2,6,0.00
2014-6-22,61,52,46,55,45,40,91,78,55,29.86,29.74,6,1,6,0.00
2014-6-23,80,63,46,61,46,39,91,59,23,29.77,29.71,10,1,10,0.00
2014-6-24,55,50,44,52,44,37,89,79,66,29.98,29.77,9,3,9,0.00
2014-6-25,56,48,40,48,37,0,89,68,40,30.01,29.95,10,2,10,0.00
2014-6-26,66,53,40,44,35,29,82,54,34,30.01,29.86,7,2,7,0.00
2014-6-27,66,54,44,50,41,33,85,63,44,29.86,29.71,10,1,10,0.00
2014-6-28,85,72,51,67,57,44,92,64,32,29.74,29.59,21,6,22,0.00
2014-6-29,81,73,66,62,49,34,87,49,20,29.62,29.47,26,8,26,0.00
2014-6-30,82,73,66,41,38,35,39,29,19,29.50,29.30,29,10,29,0.00
2014-7-1,72,65,56,56,47,38,81,54,34,29.68,29.30,15,7,18,0.00
2014-7-2,70,60,46,43,34,25,73,41,22,29.98,29.68,13,4,13,0.00
2014-7-3,74,59,42,49,36,31,85,48,21,30.09,29.98,10,1,10,0.00
2014-7-4,77,63,45,53,40,33,88,50,21,30.15,29.98,15,3,15,0.00
2014-7-5,80,72,63,55,47,39,54,42,33,29.98,29.71,22,7,22,0.00
2014-7-6,85,74,63,63,53,41,86,52,29,29.71,29.50,20,6,20,0.00
2014-7-7,82,70,61,60,49,40,85,50,24,29.62,29.47,11,4,11,0.00
2014-7-8,68,59,49,57,51,42,89,76,39,29.77,29.50,13,3,13,0.00
2014-7-9,72,61,47,52,39,32,85,49,23,29.92,29.77,8,2,8,0.00
2014-7-10,81,66,50,49,44,36,81,48,22,29.95,29.86,13,3,13,0.00
2014-7-11,73,67,54,64,58,46,87,73,63,29.89,29.80,24,6,24,0.00
2014-7-12,73,68,60,66,54,42,90,64,33,29.92,29.74,9,1,9,0.00
2014-7-13,70,62,51,54,39,32,85,46,26,29.83,29.74,16,5,16,0.00
2014-7-14,60,55,50,50,44,0,83,68,45,29.92,29.71,14,4,14,0.00
2014-7-15,70,60,50,50,41,31,87,54,24,29.95,29.89,13,3,13,0.00
2014-7-16,73,59,41,49,37,31,90,49,22,29.95,29.86,10,1,10,0.00
2014-7-17,76,64,47,54,42,36,90,51,24,29.92,29.86,13,2,13,0.00
2014-7-18,76,68,59,49,45,37,69,47,25,29.92,29.80,15,6,15,0.00
2014-7-19,75,69,64,53,50,45,61,50,42,29.80,29.74,19,6,19,0.00
2014-7-20,84,74,64,56,54,51,74,51,33,29.77,29.68,19,6,19,0.00
2014-7-21,88,80,70,64,58,53,67,48,33,29.80,29.68,14,6,14,0.00
2014-7-22,80,71,55,65,52,41,80,53,30,30.03,29.59,26,6,26,0.00
2014-7-23,75,63,48,60,44,36,88,55,25,30.12,30.03,9,1,9,0.00
2014-7-24,76,65,50,57,45,39,88,54,27,30.06,29.77,10,2,10,0.00
2014-7-25,70,67,62,61,56,48,76,68,51,29.80,29.65,13,3,13,0.00
2014-7-26,85,74,60,64,50,38,86,50,20,29.71,29.59,13,4,13,0.00
2014-7-27,64,60,54,58,51,39,89,74,40,30.03,29.62,16,2,16,0.00
2014-7-28,74,63,49,59,45,35,92,58,25,30.15,29.98,11,2,11,0.00
2014-7-29,78,62,51,56,48,37,92,65,24,30.33,29.92,16,3,19,0.00
2014-7-30,77,62,46,59,48,42,92,64,32,30.09,29.86,12,2,12,0.00
2014-7-31,80,67,53,59,48,38,90,56,24,29.98,29.86,11,2,11,0.00
2014-8-1,78,62,50,58,47,42,89,61,30,30.27,29.95,8,1,8,0.00
2014-8-2,82,65,49,62,48,39,89,59,22,30.36,29.98,10,1,10,0.00
2014-8-3,77,64,52,65,53,45,90,68,35,30.30,30.01,6,1,8,0.00
2014-8-4,71,62,56,62,52,45,88,71,43,30.63,30.06,9,2,9,0.00
2014-8-5,77,62,46,59,45,35,90,60,23,31.25,30.21,6,1,6,0.00
2014-8-6,75,63,51,62,48,42,91,62,32,31.78,30.12,8,2,8,0.00
2014-8-7,74,60,47,62,49,41,89,69,43,32.10,30.15,8,1,8,0.00
2014-8-8,80,66,53,66,50,41,90,60,26,31.78,30.12,8,1,8,0.00
2014-8-9,80,66,49,63,48,38,89,58,23,32.13,30.24,10,1,10,0.00
2014-8-10,77,68,61,59,53,45,85,62,33,31.45,30.51,6,1,6,0.00
2014-8-11,70,63,56,62,57,48,91,80,50,32.04,30.80,11,2,11,0.00
2014-8-12,77,65,55,58,47,35,91,58,24,32.22,31.54,14,3,14,0.00
2014-8-13,74,64,51,60,45,34,91,57,24,32.22,31.30,10,2,10,0.00
2014-8-14,74,58,40,51,38,32,88,54,24,32.22,32.13,9,2,9,0.00
2014-8-15,83,69,52,59,49,44,84,53,28,32.22,31.22,13,3,13,0.00
2014-8-16,73,68,58,66,58,48,83,71,54,32.22,32.22,8,3,8,0.00
2014-8-17,63,57,52,54,48,43,84,73,50,32.22,32.22,10,3,10,0.00
2014-8-18,69,60,56,64,56,51,90,85,75,32.22,32.22,8,1,8,0.00
2014-8-19,70,63,59,64,56,51,92,78,54,32.22,32.22,8,1,232,0.00
2014-8-20,71,64,59,62,54,47,90,71,44,32.22,32.22,7,1,7,0.00
2014-8-21,69,62,56,64,57,51,88,82,77,32.22,32.22,7,2,7,0.00
2014-8-22,66,62,60,64,58,56,92,89,83,32.22,32.22,8,2,8,0.00
2014-8-23,67,63,60,63,59,57,90,87,81,32.22,32.22,8,2,8,0.00
2014-8-24,80,69,62,68,60,51,90,73,44,32.22,32.22,19,2,19,0.00
2014-8-25,78,69,59,65,51,36,92,57,24,32.22,28.29,24,5,24,0.00
2014-8-26,69,60,51,48,40,35,77,49,30,32.22,18.93,14,4,14,0.00
2014-8-27,71,60,49,56,43,34,89,59,27,18.93,18.93,9,2,9,0.00
2014-8-28,75,62,47,57,44,38,85,56,31,18.93,18.93,9,2,9,0.00
2014-8-29,68,64,61,64,58,55,90,82,72,18.93,18.93,10,3,10,0.00
2014-9-11,53,47,41,34,30,23,76,53,32,30.27,30.18,8,1,8,0.00
2014-9-12,50,42,34,39,30,22,89,65,34,30.33,30.21,8,1,9,0.00
2014-9-13,56,45,30,41,26,21,90,53,27,30.21,30.01,13,3,15,0.00
2014-9-14,60,52,40,35,30,26,76,45,32,30.01,29.92,22,6,22,0.00
2014-9-15,58,47,37,45,31,22,93,60,26,30.09,30.01,11,2,12,0.00
2014-9-16,68,54,37,34,30,24,80,42,23,30.06,29.89,18,5,18,0.00
2014-9-17,68,50,40,46,35,27,82,58,32,30.03,29.83,16,3,16,0.00
2014-9-18,53,44,37,40,34,24,74,66,58,30.06,29.92,8,2,8,0.00
2014-9-19,66,59,40,60,49,32,90,70,46,29.92,29.53,23,6,23,0.00
2014-9-20,69,62,54,61,49,37,90,65,32,29.68,29.50,23,5,24,0.00
2014-9-21,63,53,40,51,39,27,92,64,26,30.09,29.65,15,3,15,0.00
2014-9-22,71,54,38,50,38,32,92,59,28,30.12,30.01,15,3,15,0.00
2014-9-23,73,59,46,51,41,34,88,56,25,30.12,30.06,17,2,17,0.00
2014-9-24,67,61,56,44,40,36,62,47,33,30.09,30.06,17,5,17,0.00
2014-9-25,69,60,53,51,46,43,73,60,47,30.12,30.09,9,1,9,0.00
2014-9-26,73,57,44,61,44,38,86,64,37,30.12,30.06,8,1,8,0.00
2014-9-27,80,67,49,56,47,40,82,51,30,30.06,30.01,17,4,17,0.00
2014-9-28,80,68,53,55,47,36,85,52,22,30.03,29.92,15,4,16,0.00
2014-9-29,53,46,43,49,36,28,88,71,48,30.12,29.98,17,6,17,0.00
2014-9-30,56,46,42,37,33,30,73,62,40,30.09,29.83,11,3,11,0.00
2014-10-1,54,49,41,51,44,33,92,82,70,29.86,29.68,11,3,11,0.00
2014-10-2,58,54,52,53,50,46,93,86,66,29.77,29.62,9,1,9,0.00
2014-10-3,52,42,33,49,38,30,92,85,66,29.62,29.50,24,7,24,0.00
2014-10-4,46,41,35,37,25,18,93,55,38,29.59,29.53,21,7,22,0.00
2014-10-5,49,41,36,22,18,15,53,40,28,29.53,29.36,20,6,20,0.00
2014-10-6,55,45,33,29,20,14,54,38,25,29.39,29.27,20,6,21,0.00
2014-10-7,52,42,32,27,19,16,72,42,28,29.71,29.33,23,5,23,0.00
2014-10-8,50,42,32,21,17,11,51,37,27,29.95,29.71,19,6,19,0.00
2014-10-22,58,49,39,30,24,20,69,40,26,30.12,29.92,20,6,20,0.00
2014-10-23,59,52,48,46,39,23,89,64,30,29.92,29.83,20,6,20,0.00
2014-10-24,70,57,49,47,41,31,92,60,32,29.86,29.68,17,7,17,0.00
2014-10-25,60,52,39,31,19,11,36,27,19,29.89,29.71,22,7,22,0.00
2014-10-26,61,46,26,29,17,10,68,33,19,29.89,29.59,11,2,11,0.00
2014-10-27,54,44,32,43,31,18,84,60,32,29.59,29.50,10,2,10,0.00
2014-10-28,46,41,36,41,32,23,89,71,47,29.77,29.53,23,7,23,0.00
2014-10-29,42,38,35,27,24,22,69,57,46,30.01,29.77,14,5,14,0.00
2014-10-30,43,37,30,30,21,8,75,54,38,30.24,29.95,28,5,28,0.00
2014-10-31,37,29,17,12,7,1,54,40,30,30.45,30.24,23,3,23,0.00
2014-11-1,40,29,15,12,8,3,62,42,28,30.36,30.06,15,5,15,0.00
2014-11-2,46,35,33,14,10,8,39,34,28,30.06,29.95,18,8,18,0.00
2014-11-8,46,35,34,22,20,14,60,55,28,29.95,29.62,22,11,22,0.00
2014-11-9,35,27,17,24,7,-2,77,44,30,29.77,29.59,15,4,15,0.00
2014-11-10,27,25,20,23,14,6,87,66,52,29.89,29.68,16,4,16,0.00
2014-11-11,24,21,19,18,13,7,81,70,52,30.06,29.86,15,5,15,0.00
2014-11-12,28,21,15,17,11,7,76,67,44,30.15,30.06,14,4,14,0.00
2014-11-13,25,20,11,11,5,-5,72,53,42,30.18,30.15,12,5,13,0.00
2014-11-14,23,12,0,4,-5,-16,64,46,38,30.21,30.15,10,2,10,0.00
2014-11-15,21,8,-12,7,-10,-27,72,45,32,30.15,29.95,15,4,15,0.00
2014-11-16,20,13,7,8,-3,-14,69,50,35,29.95,29.62,21,7,21,0.00
2014-11-17,14,9,5,-4,-11,-15,44,38,37,29.77,29.65,25,7,25,0.00
2014-11-18,14,11,6,-6,-9,-14,40,40,40,29.80,29.65,16,6,16,0.00
2014-11-19,21,16,12,6,-3,-8,65,43,35,29.74,29.56,18,6,18,0.00
2014-11-20,14,4,-15,-3,-14,-35,47,42,35,30.09,29.74,18,5,18,0.00
2014-11-21,30,15,-16,13,-6,-35,49,38,35,30.12,29.65,24,8,24,0.00
2014-11-22,39,34,30,31,23,13,85,64,49,29.68,29.44,22,7,22,0.00
2014-11-23,43,38,34,41,36,31,95,93,85,29.44,29.18,11,2,11,0.00
2014-11-24,35,26,16,33,22,3,94,84,54,29.74,29.15,10,1,10,0.00
2014-11-25,21,13,-2,5,-1,-14,61,53,45,29.98,29.74,0,0,0,0.00
2014-11-26,22,16,3,12,2,-13,68,54,43,30.27,29.98,0,0,0,0.00
2014-11-27,8,-2,-10,-9,-18,-26,45,45,45,30.36,30.15,0,0,0,0.00
2014-11-28,19,12,4,6,-3,-12,57,50,45,30.15,29.62,0,0,0,0.00
2014-11-29,33,26,19,22,15,6,74,62,50,29.62,29.30,15,2,15,0.00
2014-11-30,24,9,4,8,-8,-14,49,44,44,30.21,29.47,17,6,17,0.00
2014-12-1,6,0,-9,-11,-17,-25,44,44,44,30.60,30.21,18,5,18,0.00
2014-12-2,19,12,1,2,-5,-16,57,45,36,30.27,29.77,18,7,18,0.00
2014-12-3,21,14,4,1,-6,-21,55,39,27,30.18,29.77,17,5,17,0.00
2014-12-25,32,31,31,22,22,22,70,69,69,29.80,29.80,0,0,0,0.00
2014-12-26,31,29,27,23,18,10,76,64,49,30.01,29.80,0,0,0,0.00
2014-12-27,27,23,18,14,4,-4,66,45,32,29.98,29.89,13,3,13,0.00
2014-12-28,20,12,0,6,-7,-21,57,43,35,30.24,29.92,13,4,13,0.00
2014-12-29,6,-1,-7,-16,-22,-27,35,35,35,30.51,30.24,9,4,9,0.00
2014-12-30,3,-4,-10,-19,-25,-30,35,35,35,30.57,30.33,14,5,14,0.00
2014-12-31,14,5,-5,-9,-17,-26,35,35,35,30.33,29.68,23,9,23,0.00
2015-1-1,25,16,2,14,-4,-27,74,43,22,30.03,29.59,22,6,22,0.00
2015-1-2,24,12,1,6,-13,-28,46,32,24,30.06,29.89,13,4,13,0.00